Regional Weather Roundup
Issued by NWS

Home | Current Version | Previous Version | Graphics & Text | Print | Product List | Glossary On
Versions: 1 2 3 4 5 6 7 8 9 10 11 12 13 14 15 16 17 18 19 20 21 22 23 24 25 26 27 28 29 30 31 32 33 34 35 36 37 38 39 40 41 42 43 44 45 46 47 48 49 50
000
ASUS43 KTOP 310959
RWRKS

WEATHER ROUNDUP FOR KANSAS
NATIONAL WEATHER SERVICE GOODLAND KS
400 AM CST SAT JAN 31 2015

NOTE:  "FAIR" INDICATES FEW OR NO CLOUDS BELOW 12,000 FEET WITH NO
SIGNIFICANT WEATHER AND/OR OBSTRUCTIONS TO VISIBILITY.

KSZ001>006-013>018-027>032-041>047-311100-
NORTHWEST KANSAS

CITY           SKY/WX    TMP DP  RH WIND       PRES   REMARKS
GOODLAND       CLOUDY    34  33  96 S12       29.97F WCI  25
HAYS           CLOUDY    32  25  74 SE12      30.13F WCI  23
HILL CITY      CLOUDY    34  32  92 S7        30.09F
RUSSELL        LGT SNOW  33  32  96 SE9       30.14F FOG
$$

KSZ061>065-074>080-084>089-311100-
SOUTHWEST KANSAS

CITY           SKY/WX    TMP DP  RH WIND       PRES   REMARKS
DODGE CITY     LGT RAIN  34  31  88 S17       30.09F WCI  23
ELKHART          N/A     33  26  75 S14         N/A  WCI  23
GARDEN CITY    CLOUDY    33  32  96 S18       30.04F WCI  22
LIBERAL        CLOUDY    36  30  80 S17       30.11F WCI  25
$$

KSZ066>073-081>083-090>101-311100-
SOUTHEAST KANSAS

CITY           SKY/WX    TMP DP  RH WIND       PRES   REMARKS
CHANUTE        CLOUDY    40  37  89 SE8       30.26F
COFFEYVILLE    CLOUDY    40  33  76 SE5       30.26F
HUTCHINSON     CLOUDY    37  30  75 SE6       30.20F
MEDICINE LODGE   N/A     35  30  82 SE5       30.19F
NEWTON         CLOUDY    36  27  69 S5        30.24F
PARSONS        CLOUDY    39  34  82 SE3       30.27R
WICHITA INTL   CLOUDY    39  25  57 SE3       30.22F
WICHITA JABRA  CLOUDY    38  27  64 CALM      30.23F
WINFIELD       CLOUDY    40  24  53 CALM      30.24F
$$

KSZ007>012-019>026-033>040-048>060-102>105-311100-
NORTHEAST KANSAS

CITY           SKY/WX    TMP DP  RH WIND       PRES   REMARKS
CONCORDIA      LGT SNOW  33  33 100 S8        30.19F FOG
EMPORIA        LGT RAIN  37  36  96 S6        30.24F
LAWRENCE       CLOUDY    34  31  88 E5        30.28F
MANHATTAN      LGT RAIN  36  35  96 CALM      30.25F FOG
OLATHE IND     LGT RAIN  34  28  79 SE6       30.28F
OLATHE EXE     LGT RAIN  35  28  75 CALM      30.27F
SALINA         CLOUDY    36  34  92 SE6       30.22F
TOPEKA BILLARD LGT RAIN  35  34  96 SE3       30.28F FOG
TOPEKA FORBES  LGT RAIN  36  33  89 SE3       30.26F
$$



USA.gov is the U.S. government's official web portal to all federal, state and local government web resources and services.